Dewpoint
61 53 45 36 34 27 28 26 23 35 31 32 29 29 28 28 25 30 49 47 56 64 66 68 72 71 71 70 70 69 69 69 68 67 66 65 64 62 61 61 61 61 61 61 61 62 63 63 62
44 35 40 36 30 27 22 26 26 30 35 33 32 32 28 28 29 41 45 51 56 65 67 66 72 71 71 70 70 70 70 69 69 68 67 65 64 63 62 62 63 63 64 63 63 63 64 65 65
52 35 35 32 34 28 26 35 38 37 37 32 27 28 27 31 35 40 49 51 56 65 66 67 72 72 72 71 71 71 70 70 69 68 67 66 66 65 65 65 65 65 66 66 66 65 65 65 67
44 37 34 37 34 29 26 38 36 41 35 34 30 27 32 37 36 39 45 46 50 58 64 70 72 72 72 72 71 71 71 70 70 68 68 68 67 68 68 66 66 66 67 68 68 67 67 67 68
41 34 32 27 26 28 26 30 27 34 39 33 32 30 34 37 39 40 47 50 50 50 61 70 72 72 72 72 72 71 71 70 70 70 69 69 69 69 69 68 68 68 68 68 68 68 68 67 68
34 35 32 30 28 27 25 23 26 25 25 27 29 31 32 37 40 42 44 51 47 53 60 71 72 72 72 72 72 71 71 71 71 70 70 70 70 70 70 70 70 69 68 68 67 67 68 68 68
33 34 31 29 26 25 22 26 26 26 25 25 31 30 35 37 42 46 54 49 51 52 58 71 71 72 73 72 72 71 71 71 71 71 71 71 70 71 71 70 70 68 67 66 65 65 66 68 68
32 33 32 32 30 26 25 27 28 27 25 29 31 31 34 40 39 39 37 36 40 50 52 70 71 70 70 70 72 72 72 71 71 71 71 71 71 70 71 71 70 67 66 64 64 64 64 65 67
30 29 31 31 30 29 29 26 28 29 29 29 30 31 33 34 33 34 42 38 36 37 52 66 69 70 70 69 70 72 72 72 72 71 71 71 68 65 66 68 68 67 66 65 64 63 63 64 65
30 28 29 30 30 29 30 30 28 30 31 31 32 34 33 33 34 35 36 37 38 37 40 52 60 69 69 66 68 70 70 70 70 68 68 69 67 67 63 66 68 66 65 64 64 64 64 63 61
34 30 30 30 31 32 31 31 33 32 32 32 34 34 34 33 40 39 34 35 37 41 42 53 64 67 68 66 66 69 68 68 67 67 68 69 67 67 65 64 64 64 65 62 62 62 62 62 61
33 34 32 31 31 32 32 33 32 32 33 33 35 37 35 36 39 37 36 36 36 42 52 58 63 68 68 66 65 69 68 66 66 67 70 69 68 68 67 65 65 65 65 64 65 62 65 64 63
30 32 33 32 32 32 33 31 32 32 33 33 33 35 36 37 39 41 40 39 45 50 52 58 66 68 70 71 65 67 68 66 66 67 69 68 66 67 68 67 67 67 66 64 64 64 64 63 63
31 28 27 27 28 29 28 28 29 30 31 31 34 35 35 37 37 39 43 48 53 55 57 61 67 69 69 68 72 69 70 67 67 67 67 68 67 68 67 68 66 66 65 65 64 64 64 64 63
27 28 29 29 28 28 30 29 30 32 32 31 33 34 35 36 36 37 41 52 61 56 61 63 69 70 70 70 69 74 70 69 67 67 68 67 68 69 69 67 66 66 68 66 66 65 65 63 62
25 26 26 29 30 30 30 29 32 32 31 31 32 34 35 37 35 39 46 55 59 60 61 65 55 69 71 71 70 70 70 68 68 67 67 68 69 68 68 67 66 68 68 67 66 64 63 64 62
26 25 26 27 29 29 28 28 31 32 31 33 35 36 35 36 37 48 49 49 51 61 63 66 66 69 70 72 71 70 72 68 68 67 66 67 67 67 67 66 66 68 67 67 65 64 64 63 61
23 24 25 26 26 26 27 28 30 31 29 32 34 34 33 34 38 44 51 50 55 63 68 69 68 71 71 71 71 69 68 67 66 66 66 68 67 66 67 66 67 68 66 65 65 64 64 62 62
21 23 22 25 25 26 28 29 28 31 30 31 33 34 36 38 42 45 48 52 57 61 65 69 71 73 70 69 68 67 64 65 65 66 66 66 66 66 67 66 67 67 66 65 64 64 63 62 62
15 18 20 24 23 25 25 26 29 31 32 32 33 35 36 38 39 43 49 53 62 64 66 69 70 71 70 70 69 66 65 62 63 65 66 66 65 66 63 66 66 66 66 65 63 63 62 62 63
16 17 21 21 21 22 25 25 29 28 30 31 31 33 35 37 38 41 44 58 61 63 66 67 68 71 70 70 69 70 66 67 64 66 65 65 65 65 66 66 66 66 65 64 63 62 62 61 63
17 16 16 19 20 20 23 21 29 29 28 29 30 32 35 36 38 40 45 59 61 62 64 66 68 69 69 69 67 66 63 63 64 63 65 65 65 64 65 66 65 66 65 65 64 64 63 62 60
17 16 16 17 19 23 21 22 25 27 24 26 30 32 35 37 38 40 44 59 59 62 63 66 68 68 68 68 67 66 66 65 66 64 66 67 67 65 64 64 65 65 65 65 64 64 63 63 61
18 16 17 18 18 19 22 22 22 24 26 27 30 32 34 35 36 40 55 58 59 61 63 66 66 67 66 68 68 67 66 66 65 64 65 66 67 67 65 64 64 65 65 64 64 64 63 63 63
16 23 17 18 16 17 20 19 24 28 25 28 31 32 34 36 36 53 55 56 58 60 63 64 64 64 65 66 66 67 67 66 65 65 64 65 66 65 65 65 64 65 65 64 64 64 63 64 62
17 22 16 16 15 15 18 19 21 27 27 29 26 32 34 40 49 53 54 56 57 60 62 62 63 64 64 64 64 66 67 65 66 66 66 64 64 65 66 65 64 64 64 64 65 65 64 64 62
16 16 19 19 17 13 16 22 26 27 28 29 26 33 42 46 51 52 54 56 58 60 61 62 62 62 62 63 65 66 66 66 65 66 66 65 65 64 65 64 64 64 63 63 63 64 64 64 63
17 16 17 19 18 19 17 19 19 28 30 29 29 36 46 50 50 52 53 57 58 59 62 62 62 61 62 62 64 63 62 64 65 63 65 64 64 62 64 64 64 64 64 64 64 64 64 64 63
16 15 17 22 18 18 19 18 35 32 30 33 34 35 48 49 50 52 53 56 57 58 59 61 60 60 60 62 63 64 64 64 63 63 62 64 64 61 61 63 63 63 63 64 64 63 63 62 60
17 17 21 19 22 20 19 19 32 35 30 36 34 39 47 49 49 50 52 54 55 57 58 59 59 57 59 60 62 64 64 64 64 63 63 63 63 62 60 60 62 62 62 62 63 61 62 62 59
Lifted_Index
6 7 7 6 5 4 2 1 0 -0 -0 1 2 2 1 1 1 0 -0 -1 -3 -4 -4 -3 -3 -3 -2 -1 -1 -0 0 0 0 1 2 3 4 4 4 3 3 2 2 2 2 2 2 2 2
7 7 7 5 4 3 1 0 -0 -0 -0 1 2 2 1 1 1 0 -0 -1 -3 -4 -4 -3 -3 -3 -2 -1 -1 -1 -0 -0 0 1 2 2 3 3 3 2 1 1 0 1 1 1 1 1 1
7 7 5 4 3 2 1 -0 -0 -0 -0 1 1 2 1 1 1 0 -0 -1 -2 -4 -4 -4 -4 -3 -2 -2 -2 -1 -1 -1 -1 0 1 1 1 1 1 1 0 -1 -1 -1 -1 -0 -0 0 -0
6 5 4 3 3 2 1 -0 -0 -0 -0 0 1 1 1 1 1 1 0 -1 -2 -3 -4 -4 -4 -4 -3 -3 -2 -2 -2 -2 -1 -1 -0 -0 0 -0 -0 -0 -1 -1 -2 -2 -2 -2 -1 -1 -1
5 4 4 3 3 2 1 0 -0 -0 -0 0 0 0 0 0 1 1 0 -1 -1 -1 -3 -5 -5 -4 -4 -3 -3 -3 -3 -2 -2 -2 -1 -1 -1 -1 -2 -2 -2 -2 -3 -3 -2 -2 -2 -1 -1
4 4 3 3 2 2 1 0 0 1 1 0 -0 -0 0 -0 0 0 0 -0 -1 -1 -2 -4 -5 -5 -4 -4 -4 -4 -3 -3 -3 -2 -2 -2 -2 -3 -3 -3 -3 -3 -3 -3 -2 -2 -2 -1 -1
4 3 2 2 1 1 0 -0 0 1 1 0 -0 -0 0 -0 -1 -0 -0 -0 -1 -1 -2 -4 -5 -5 -5 -4 -4 -4 -4 -4 -4 -3 -3 -3 -3 -4 -4 -5 -4 -3 -2 -2 -1 -1 -1 -1 -1
4 3 2 2 1 1 0 -0 0 0 0 -0 -0 0 0 0 -0 -0 -0 -0 -0 -1 -3 -4 -5 -5 -5 -4 -5 -5 -5 -5 -5 -4 -4 -4 -4 -4 -5 -5 -4 -3 -2 -1 -0 0 -0 -0 -1
4 3 3 2 1 1 0 -0 -0 0 0 0 0 0 0 0 0 0 0 0 0 -0 -2 -4 -5 -6 -5 -5 -5 -5 -5 -5 -5 -5 -5 -5 -4 -4 -4 -4 -4 -2 -1 -1 0 0 0 0 -0
3 3 3 2 1 1 0 -0 -0 -0 -0 -0 -0 0 0 0 0 1 0 0 0 0 -1 -3 -5 -6 -6 -5 -5 -5 -5 -5 -5 -5 -5 -5 -5 -4 -3 -3 -3 -2 -1 -1 0 0 0 0 0
3 3 3 2 1 0 0 -0 -0 -0 -0 -0 -0 -0 -0 0 1 1 1 0 0 0 -1 -3 -4 -5 -6 -5 -5 -6 -6 -6 -6 -6 -6 -6 -5 -4 -4 -3 -2 -2 -1 -1 -1 -0 -0 -0 -0
2 2 2 1 1 0 0 -0 -0 -0 -0 -0 -1 -1 -0 0 1 1 1 0 0 0 -1 -3 -4 -5 -6 -5 -5 -6 -6 -6 -6 -7 -7 -7 -6 -5 -4 -4 -3 -3 -2 -2 -1 -1 -1 -1 -1
2 1 1 1 0 0 0 0 0 0 0 -0 -0 -0 -0 0 1 1 0 0 0 0 -1 -3 -5 -5 -6 -6 -6 -6 -6 -7 -7 -7 -7 -7 -6 -5 -5 -4 -4 -3 -3 -2 -2 -1 -1 -1 -1
1 1 1 1 0 0 -0 0 1 1 1 1 0 0 0 0 1 0 0 0 -0 -0 -1 -3 -5 -6 -6 -7 -7 -7 -7 -7 -7 -7 -7 -6 -6 -6 -5 -5 -4 -4 -3 -3 -2 -2 -1 -1 -1
1 1 1 1 1 1 0 1 1 1 1 1 1 1 1 1 0 1 1 0 -1 -1 -2 -3 -5 -6 -7 -7 -8 -8 -8 -7 -7 -6 -6 -6 -6 -6 -5 -5 -4 -4 -3 -3 -2 -2 -1 -1 -1
2 2 2 2 2 1 0 1 2 2 1 1 1 1 1 1 1 1 1 0 -1 -2 -2 -3 -4 -6 -7 -7 -8 -8 -8 -7 -6 -6 -6 -6 -6 -6 -6 -5 -4 -4 -3 -3 -2 -2 -2 -1 -1
3 3 3 3 3 1 0 0 2 1 0 0 0 1 1 1 1 1 1 0 -1 -2 -3 -3 -5 -6 -7 -7 -8 -8 -8 -7 -6 -6 -5 -6 -6 -6 -5 -5 -4 -4 -3 -3 -2 -2 -2 -1 -1
4 4 4 3 3 1 -0 0 2 1 0 -0 0 1 2 1 1 1 1 0 -1 -2 -3 -4 -6 -7 -7 -7 -8 -8 -8 -7 -6 -5 -5 -5 -5 -5 -5 -4 -4 -4 -3 -3 -2 -2 -1 -1 -1
5 4 4 3 2 1 0 0 2 2 1 0 0 1 2 1 0 0 1 0 -1 -2 -3 -5 -6 -7 -7 -7 -8 -7 -7 -6 -5 -5 -5 -5 -5 -4 -4 -4 -4 -3 -3 -3 -2 -2 -2 -1 -1
6 5 4 4 3 1 0 1 2 2 2 1 1 2 2 2 1 1 1 -0 -2 -2 -4 -5 -6 -7 -7 -8 -7 -7 -6 -5 -4 -4 -4 -4 -4 -4 -4 -4 -3 -3 -3 -3 -3 -2 -2 -1 -1
6 6 5 4 3 2 1 1 2 3 2 2 2 2 2 2 2 2 0 -1 -2 -3 -4 -5 -6 -7 -7 -7 -6 -5 -4 -4 -4 -3 -3 -4 -4 -4 -3 -3 -3 -3 -3 -3 -3 -2 -2 -2 -2
6 6 5 4 4 2 2 2 3 3 3 3 2 2 2 2 2 2 0 -2 -3 -4 -5 -5 -6 -7 -7 -6 -5 -4 -3 -3 -3 -3 -3 -4 -4 -3 -3 -3 -3 -3 -3 -3 -3 -3 -2 -2 -2
6 5 5 4 3 2 2 3 3 3 3 3 3 2 2 2 2 1 -0 -2 -3 -4 -5 -5 -6 -6 -5 -5 -4 -4 -3 -3 -3 -3 -3 -4 -4 -3 -3 -3 -3 -3 -3 -3 -3 -3 -3 -3 -2
5 5 4 3 2 2 3 3 3 3 3 3 3 3 2 2 1 0 -2 -3 -4 -4 -5 -5 -5 -5 -4 -4 -4 -3 -3 -3 -3 -3 -3 -3 -3 -3 -3 -3 -3 -3 -3 -3 -3 -3 -3 -3 -3
5 4 3 2 1 2 3 3 3 3 3 3 3 3 2 1 0 -1 -2 -3 -4 -4 -5 -5 -5 -4 -4 -3 -3 -3 -3 -3 -3 -3 -3 -3 -3 -3 -3 -3 -2 -3 -3 -3 -3 -3 -3 -3 -3
4 4 3 1 1 1 3 3 3 3 3 3 3 3 2 0 -1 -2 -3 -3 -4 -4 -4 -4 -4 -3 -3 -3 -3 -3 -3 -3 -3 -3 -2 -2 -2 -2 -2 -2 -2 -2 -3 -3 -3 -3 -3 -3 -3
3 3 3 2 1 1 2 2 2 2 2 3 3 2 1 -1 -2 -3 -3 -3 -4 -4 -4 -4 -3 -3 -2 -2 -3 -3 -3 -3 -2 -2 -2 -2 -1 -1 -1 -2 -2 -2 -2 -3 -2 -2 -2 -2 -2
3 3 3 2 1 0 1 0 0 1 1 2 2 2 -0 -2 -2 -3 -3 -3 -3 -4 -3 -3 -3 -2 -2 -2 -2 -2 -2 -2 -2 -1 -1 -1 -1 -1 -1 -1 -2 -2 -2 -2 -2 -2 -2 -2 -1
3 3 2 2 1 1 0 0 -0 0 1 2 2 1 -1 -2 -2 -2 -3 -3 -3 -3 -3 -3 -2 -2 -2 -2 -2 -2 -2 -2 -1 -1 -1 -1 -0 0 -0 -1 -1 -1 -1 -2 -2 -2 -2 -1 0
3 3 2 1 1 1 0 0 0 0 1 1 1 0 -1 -2 -2 -2 -3 -3 -3 -3 -3 -2 -2 -1 -1 -2 -2 -2 -2 -2 -1 -1 -1 -1 -0 0 0 -0 -1 -1 -1 -1 -1 -1 -1 -0 1